Find Starlink 35213

NORAD ID: 65638 Int'l Des: 2025-210 Owner: SPXS Country: US Constellation: starlink operational
LEOCIRCULAR

現在のビュー

3D地球を読み込み中...

Starlink 35213について

説明を読み込み中...

次回通過

Passes for default location (London). Set your location on the main map for personalized predictions.

高度履歴

Loading altitude history...

軌道要素

1 65638U 25210S 26149.79212591 .00032076 00000-0 95654-3 0 9996
2 65638 53.1593 289.2742 0001566 81.7361 278.3819 15.34395965 40163
Epoch: May 29, 2026 • Age: 18 hours

現在のステータス

高度 462.6 km
速度 7.64 km/s
衛星直下点 18.12°N, 10.3°E
打ち上げ日 Sep 18, 2025
運用期間 0.6 years
タイプ internet

技術仕様

分類 Payload
質量 575.00 kg
乾燥質量 530.00 kg
総質量 575.00 kg
長さ 0.30 m
直径 4.10 m
スパン 29.00 m
形状 Box + pan
製造者 SPXS
バスタイプ Starlink V2MO
フェーズステータス In Orbit
所有者/国 SPXS/US

Most Searched